Flag for China Weather past 2 weeks in Foochow, Fujian, China

Now
81 °F

Clear.


Feels Like: 85 °F
Forecast: 72 / 96 °F
Wind: 1 mph from North

Location: Fuzhou Airport

Current Time: Aug 2, 2015 at 9:18:40 PM

Latest Report: Aug 2, 2015 at 9:00 PM


Visibility: 10 mi

Pressure: 29.83 "Hg

Humidity: 79%

Dew point: 73 °F

Location of FoochowLocation

Historic Weather in Foochow — Graph

°F

Foochow temperature yesterday

Maximum temperature yesterday: 90 °F (at 11:00 AM)
Minimum temperature yesterday: 77 °F (at 2:00 AM)
Average temperature yesterday: 83 °F

Past Weeks' High & Low Weather Summary

 TemperatureHumidityPressure
High91 °F (Jul 28, 2:00 PM)100% (Jul 21, 12:00 AM)29.92 "Hg (Jul 21, 12:00 AM)
Low75 °F (Jul 29, 6:00 AM)55% (Jul 29, 11:00 AM)29.65 "Hg (Jul 18, 8:00 PM)
Average82 °F80%29.78 "Hg
* Reported Jul 18 8:00 PM — Aug 2 8:00 PM, Foochow, Weather by CustomWeather, © 2015

Note: Actual official high and low records may vary slightly from our data, if they occured in-between our weather recording intervals... More about our weather records

Advertising

Foochow weather history for previous 24 hours

 ConditionsComfort  
Time TempWeatherWind HumidityBarometerVisibility
8:00 PM
Sun, Aug 2
82 °FClear.6 mph79%29.83 "Hg10 mi
7:00 PM84 °FClear.6 mph70%29.80 "Hg10 mi
6:00 PM86 °FPassing clouds.6 mph66%29.80 "HgN/A
5:00 PM88 °FPassing clouds.6 mph62%29.80 "HgN/A
4:00 PM90 °FPassing clouds.8 mph67%29.80 "HgN/A
3:00 PM90 °FPassing clouds.8 mph67%29.83 "HgN/A
2:00 PM90 °FPassing clouds.6 mph67%29.86 "HgN/A
1:00 PM90 °FPassing clouds.6 mph63%29.86 "HgN/A
12:00 PM90 °FPassing clouds.8 mph67%29.89 "HgN/A
11:00 AM90 °FPassing clouds.8 mph63%29.89 "HgN/A
10:00 AM88 °FScattered clouds.8 mph66%29.92 "HgN/A
9:00 AM84 °FScattered clouds.3 mph79%29.92 "HgN/A
8:00 AM82 °FScattered clouds.1 mph84%29.92 "HgN/A
7:00 AM81 °FScattered clouds.3 mph89%29.89 "HgN/A
6:00 AM77 °FPassing clouds.3 mph94%29.89 "HgN/A
5:00 AM77 °FClear.1 mph94%29.86 "Hg10 mi
4:00 AM79 °FClear.3 mph89%29.86 "Hg10 mi
3:00 AM79 °FClear.6 mph89%29.86 "Hg10 mi
2:00 AM77 °FClear.6 mph94%29.86 "Hg10 mi
1:00 AM77 °FClear.1 mph94%29.86 "Hg10 mi
12:00 AM79 °FPassing clouds.3 mph89%29.86 "HgN/A
11:00 PM
Sat, Aug 1
79 °FPassing clouds.3 mph89%29.83 "HgN/A
10:00 PM81 °FPassing clouds.3 mph84%29.86 "HgN/A
9:00 PM81 °FClear.1 mph84%29.83 "Hg10 mi
Weather by CustomWeather, © 2015

See weather overviewHow to use our weather pages